Regional Weather Roundup
Issued by NWS

Home | Current Version | Previous Version | Graphics & Text | Print | Product List | Glossary On
Versions: 1 2 3 4 5 6 7 8 9 10 11 12 13 14 15 16 17 18 19 20 21 22 23 24 25 26 27 28 29 30 31 32 33 34 35 36 37 38 39 40 41 42 43 44 45 46 47 48 49 50
000
ASUS43 KLMK 210010
RWRKY
KENTUCKY REGIONAL WEATHER ROUNDUP
NATIONAL WEATHER SERVICE LOUISVILLE KY
700 PM EST FRI JAN 20 2017

NOTE "FAIR" INDICATES FEW OR NO CLOUDS BELOW 12,000 FEET
WITH NO SIGNIFICANT WEATHER AND/OR OBSTRUCTIONS TO VISIBILITY.

KYZ001>023-026-027-061>063-070>075-210100-
WESTERN AND SOUTH CENTRAL KENTUCKY

CITY           SKY/WX    TMP DP  RH WIND       PRES   REMARKS
PADUCAH        CLOUDY    56  50  80 SE6       29.66R
HENDERSON      MOCLDY    57  52  82 S8        29.68R
OWENSBORO      CLOUDY    57  53  86 S6        29.70R
HOPKINSVILLE   PTCLDY    60  53  77 S6        29.71R
BOWLING GREEN  CLOUDY    61  51  70 S3        29.72R
GLASGOW        CLEAR     58  51  75 SE3       29.74R
$$

KYZ024-025-028>034-038-045-046-053-210100-
NORTH CENTRAL KENTUCKY

CITY           SKY/WX    TMP DP  RH WIND       PRES   REMARKS
LOUISVILLE/SDF MOCLDY    58  48  69 SE7       29.73R
LOUISVILLE/LOU PTCLDY    59  49  69 SE5       29.73S
FORT KNOX      CLOUDY    54  50  87 E5        29.71S
$$

KYZ035>037-039>044-047>052-055>060-089>105-210100-
NORTHEAST KENTUCKY

CITY           SKY/WX    TMP DP  RH WIND       PRES   REMARKS
LEXINGTON      PTCLDY    57  47  69 SE5       29.77S
COVINGTON      MOCLDY    55  49  80 S6        29.75R
FRANKFORT      PTCLDY    54  46  74 CALM      29.75S
$$

KYZ054-064>069-076>088-106>120-210100-
SOUTHEAST KENTUCKY

CITY           SKY/WX    TMP DP  RH WIND       PRES   REMARKS
JACKSON        CLEAR     59  49  69 W3        29.80R
LONDON         CLEAR     54  45  71 CALM      29.79R
SOMERSET       CLOUDY    54  46  76 CALM      29.80R
MIDDLESBORO    CLEAR     55  51  83 CALM      29.81R
MONTICELLO     MOCLDY    50  47  89 NW9       29.80R
$$





USA.gov is the U.S. government's official web portal to all federal, state and local government web resources and services.